Hourly Weather Bolshie Ozerki

Today, 20 June, Sunday

Time Temperature Precipitation Wind Pressure Humidity
00:00 +17°C° 0 mm 2 mps 745 mmHg 89%
01:00 +17°C° 0 mm 2 mps 746 mmHg 89%
02:00 +16°C° 0 mm 1 mps 746 mmHg 89%
03:00 +16°C° 0 mm 2 mps 745 mmHg 88%
04:00 +17°C° 0 mm 2 mps 745 mmHg 87%
05:00 +17°C° 0 mm 2 mps 745 mmHg 87%
06:00 +19°C° 0 mm 2 mps 745 mmHg 81%
07:00 +20°C° 0 mm 3 mps 745 mmHg 75%
08:00 +22°C° 0 mm 3 mps 746 mmHg 69%
09:00 +24°C° 0 mm 3 mps 745 mmHg 66%
10:00 +25°C° 0 mm 3 mps 745 mmHg 62%
11:00 +25°C° 0 mm 4 mps 745 mmHg 59%
12:00 +26°C° 0 mm 4 mps 745 mmHg 58%
13:00 +26°C° 0 mm 3 mps 745 mmHg 57%
14:00 +27°C° 0 mm 3 mps 744 mmHg 56%
15:00 +26°C° 0 mm 3 mps 744 mmHg 61%
16:00 +26°C° 0 mm 3 mps 744 mmHg 65%
17:00 +26°C° 0 mm 3 mps 744 mmHg 69%
18:00 +24°C° 0 mm 2 mps 744 mmHg 74%
19:00 +21°C° 0 mm 2 mps 744 mmHg 79%
20:00 +20°C° 0 mm 2 mps 744 mmHg 84%
21:00 +19°C° 0 mm 2 mps 744 mmHg 85%
22:00 +19°C° 0 mm 2 mps 744 mmHg 85%
23:00 +18°C° 0 mm 2 mps 743 mmHg 86%

Tomorrow, 21 June, Monday

Time Temperature Precipitation Wind Pressure Humidity
00:00 +18°C° 0 mm 2 mps 743 mmHg 87%
01:00 +18°C° 0 mm 3 mps 743 mmHg 87%
02:00 +17°C° 0 mm 3 mps 743 mmHg 88%
03:00 +18°C° 0 mm 3 mps 743 mmHg 88%
04:00 +18°C° 0 mm 2 mps 743 mmHg 88%
05:00 +18°C° 0 mm 2 mps 744 mmHg 88%
06:00 +20°C° 0 mm 3 mps 744 mmHg 83%
07:00 +22°C° 0 mm 3 mps 744 mmHg 78%
08:00 +23°C° 0 mm 4 mps 744 mmHg 73%
09:00 +25°C° 0 mm 4 mps 744 mmHg 69%
10:00 +26°C° 0 mm 5 mps 744 mmHg 66%
11:00 +27°C° 0 mm 5 mps 744 mmHg 62%
12:00 +28°C° 0 mm 5 mps 743 mmHg 62%
13:00 +28°C° 0 mm 5 mps 743 mmHg 62%
14:00 +28°C° 0 mm 5 mps 743 mmHg 61%
15:00 +28°C° 0 mm 4 mps 743 mmHg 66%
16:00 +27°C° 0 mm 4 mps 743 mmHg 70%
17:00 +27°C° 0 mm 3 mps 743 mmHg 75%
18:00 +26°C° 0 mm 3 mps 743 mmHg 79%
19:00 +24°C° 0 mm 3 mps 743 mmHg 83%
20:00 +22°C° 0 mm 3 mps 743 mmHg 87%
21:00 +21°C° 0 mm 3 mps 743 mmHg 88%
22:00 +21°C° 0 mm 3 mps 743 mmHg 89%
23:00 +20°C° 0 mm 3 mps 743 mmHg 90%

Day after tomorrow, 22 June, Tuesday

Time Temperature Precipitation Wind Pressure Humidity
00:00 +20°C° 0 mm 3 mps 743 mmHg 91%
01:00 +19°C° 0 mm 3 mps 743 mmHg 92%
02:00 +19°C° 0 mm 3 mps 743 mmHg 92%
03:00 +19°C° 0 mm 3 mps 743 mmHg 91%
04:00 +20°C° 0 mm 3 mps 743 mmHg 90%
05:00 +20°C° 0 mm 3 mps 743 mmHg 89%
06:00 +22°C° 0 mm 3 mps 743 mmHg 83%
07:00 +23°C° 0 mm 4 mps 744 mmHg 77%
08:00 +26°C° 0 mm 4 mps 744 mmHg 71%
09:00 +27°C° 0 mm 4 mps 744 mmHg 68%
10:00 +28°C° 0 mm 5 mps 744 mmHg 64%
11:00 +29°C° 0 mm 5 mps 744 mmHg 60%
12:00 +29°C° 0 mm 5 mps 744 mmHg 60%
13:00 +30°C° 0 mm 5 mps 744 mmHg 59%
14:00 +30°C° 0 mm 4 mps 744 mmHg 58%
15:00 +30°C° 0 mm 4 mps 743 mmHg 62%
16:00 +29°C° 0 mm 4 mps 743 mmHg 66%
17:00 +29°C° 0 mm 3 mps 743 mmHg 70%
18:00 +27°C° 0 mm 3 mps 743 mmHg 75%
19:00 +25°C° 0 mm 3 mps 743 mmHg 79%
20:00 +24°C° 0 mm 3 mps 743 mmHg 83%
21:00 +22°C° 0 mm 3 mps 743 mmHg 84%
22:00 +22°C° 0 mm 3 mps 743 mmHg 85%
23:00 +21°C° 0 mm 3 mps 743 mmHg 85%

23 June, Wednesday

Time Temperature Precipitation Wind Pressure Humidity
00:00 +21°C° 0 mm 3 mps 743 mmHg 85%
01:00 +20°C° 0 mm 3 mps 743 mmHg 85%
02:00 +20°C° 0 mm 3 mps 743 mmHg 85%
03:00 +20°C° 0 mm 3 mps 743 mmHg 85%
04:00 +20°C° 0 mm 3 mps 743 mmHg 85%
05:00 +20°C° 0 mm 3 mps 743 mmHg 85%
06:00 +22°C° 0 mm 3 mps 743 mmHg 80%
07:00 +25°C° 0 mm 3 mps 743 mmHg 75%
08:00 +27°C° 0 mm 4 mps 744 mmHg 70%
09:00 +28°C° 0 mm 4 mps 744 mmHg 66%
10:00 +29°C° 0 mm 4 mps 744 mmHg 61%
11:00 +30°C° 0 mm 4 mps 744 mmHg 57%
12:00 +30°C° 0 mm 4 mps 744 mmHg 56%
13:00 +32°C° 0 mm 4 mps 744 mmHg 55%
14:00 +32°C° 0 mm 4 mps 744 mmHg 54%
15:00 +31°C° 0 mm 3 mps 743 mmHg 59%
16:00 +30°C° 0 mm 3 mps 743 mmHg 63%
17:00 +30°C° 0 mm 3 mps 743 mmHg 68%
18:00 +28°C° 0 mm 2 mps 743 mmHg 73%
19:00 +27°C° 0 mm 2 mps 743 mmHg 78%
20:00 +25°C° 0 mm 2 mps 743 mmHg 83%
21:00 +24°C° 0 mm 1 mps 743 mmHg 84%
22:00 +24°C° 0 mm 1 mps 743 mmHg 84%
23:00 +23°C° 0 mm 1 mps 743 mmHg 85%

24 June, Thursday

Time Temperature Precipitation Wind Pressure Humidity
00:00 +23°C° 0 mm 1 mps 743 mmHg 85%
01:00 +22°C° 0 mm 1 mps 743 mmHg 86%
02:00 +22°C° 0 mm 1 mps 743 mmHg 86%
03:00 +22°C° 0 mm 1 mps 743 mmHg 86%
04:00 +23°C° 0 mm 2 mps 743 mmHg 85%
05:00 +23°C° 0 mm 2 mps 744 mmHg 85%
06:00 +25°C° 0 mm 2 mps 744 mmHg 80%
07:00 +26°C° 0 mm 2 mps 744 mmHg 75%
08:00 +28°C° 0 mm 2 mps 744 mmHg 69%
09:00 +29°C° 0 mm 2 mps 744 mmHg 66%
10:00 +30°C° 0 mm 2 mps 744 mmHg 62%
11:00 +31°C° 0 mm 2 mps 744 mmHg 58%
12:00 +31°C° 0 mm 1 mps 744 mmHg 56%
13:00 +32°C° 0 mm 1 mps 744 mmHg 53%
14:00 +32°C° 0 mm 1 mps 744 mmHg 51%
15:00 +32°C° 0 mm 1 mps 744 mmHg 54%
16:00 +32°C° 0 mm 1 mps 743 mmHg 57%
17:00 +30°C° 0 mm 0 mps 743 mmHg 59%
18:00 +30°C° 0 mm 1 mps 743 mmHg 63%
19:00 +28°C° 0 mm 1 mps 743 mmHg 66%
20:00 +26°C° 0 mm 1 mps 743 mmHg 69%
21:00 +26°C° 0 mm 1 mps 743 mmHg 71%
22:00 +25°C° 0 mm 1 mps 743 mmHg 73%
23:00 +22°C° 0 mm 0 mps 742 mmHg 75%

25 June, Friday

Time Temperature Precipitation Wind Pressure Humidity
00:00 +24°C° 0 mm 1 mps 743 mmHg 77%
01:00 +23°C° 0 mm 1 mps 743 mmHg 79%
02:00 +23°C° 0 mm 1 mps 743 mmHg 80%
03:00 +23°C° 0 mm 1 mps 743 mmHg 81%
04:00 +24°C° 0 mm 1 mps 743 mmHg 81%
05:00 +25°C° 0 mm 1 mps 743 mmHg 81%
06:00 +26°C° 0 mm 1 mps 743 mmHg 77%
07:00 +27°C° 0 mm 1 mps 743 mmHg 73%
08:00 +29°C° 0 mm 2 mps 743 mmHg 70%
09:00 +29°C° 0.1 mm 2 mps 743 mmHg 66%
10:00 +30°C° 0.1 mm 2 mps 743 mmHg 62%
11:00 +31°C° 0.1 mm 1 mps 743 mmHg 58%
12:00 +31°C° 0 mm 1 mps 743 mmHg 56%
13:00 +32°C° 0 mm 1 mps 743 mmHg 53%
14:00 +32°C° 0 mm 1 mps 743 mmHg 50%
15:00 +32°C° 0 mm 2 mps 742 mmHg 55%
16:00 +31°C° 0 mm 2 mps 742 mmHg 60%
17:00 +30°C° 0 mm 3 mps 741 mmHg 64%
18:00 +29°C° 0.1 mm 3 mps 741 mmHg 69%
19:00 +27°C° 0.1 mm 2 mps 741 mmHg 73%
20:00 +25°C° 0.1 mm 2 mps 742 mmHg 78%
21:00 +25°C° 0.2 mm 1 mps 742 mmHg 80%
22:00 +24°C° 0.2 mm 1 mps 742 mmHg 82%
23:00 +23°C° 0.2 mm 1 mps 741 mmHg 84%
Show more